Regional Weather Roundup
Issued by NWS Newport/Morehead, NC

Current Version | Previous Version | Graphics & Text | Print | Product List | Glossary Off
Versions: 1 2 3 4 5 6 7 8 9 10 11 12 13 14 15 16 17 18 19 20 21 22 23 24 25 26 27 28 29 30 31 32 33 34 35 36 37 38 39 40 41 42 43 44 45 46 47 48 49 50

915
ASUS42 KMHX 260125
RWRMHX
WEATHER ROUNDUP FOR EASTERN NORTH CAROLINA
NATIONAL WEATHER SERVICE NEWPORT/MOREHEAD CITY NC
900 PM EDT MON JUL 25 2016

NOTE: "FAIR" INDICATES FEW OR NO CLOUDS BELOW 12,000 FEET
WITH NO SIGNIFICANT WEATHER AND/OR OBSTRUCTIONS TO VISIBILITY

NCZ015>017-031-032-045>047-102-103-260200-
NORTH COAST

CITY           SKY/WX    TMP DP  RH WIND       PRES   REMARKS
EDENTON        CLOUDY    87  75  66 SW13      29.98R
ELIZABETH CITY CLOUDY    86  77  74 S13       29.96R
KITTY HAWK     CLEAR     85  74  70 SW9       29.97R
MANTEO           N/A     85  78  79 SW15      29.99R

$$

NCZ045>047-081-094-103-104-260200-
CENTRAL COAST

CITY           SKY/WX    TMP DP  RH WIND       PRES   REMARKS
FRISCO         PTCLDY    83  76  79 SW13G23   30.01S

$$

NCZ095-097-098-100-101-260200-
SOUTHERN COAST

CITY           SKY/WX    TMP DP  RH WIND       PRES   REMARKS
BEAUFORT       CLEAR     83  76  79 SW14G23   30.02R
CEDAR ISLAND   NOT AVBL
JACKSONVILLE   CLEAR     82  75  79 SW7       30.01R
PINEY ISLAND   NOT AVBL
WILMINGTON     CLEAR     83  75  77 SW10      30.02R


$$

NCZ011>013-027>030-043-044-078>080-089-090>093-098-260200-
COASTAL PLAIN

CITY           SKY/WX    TMP DP  RH WIND       PRES   REMARKS
AHOSKIE        CLOUDY    82  77  83 S3        29.96S
CLINTON        CLEAR     84  76  74 S6        30.01R
ELIZABETHTOWN  CLEAR     84  73  69 S3        30.01R
GOLDSBORO      CLEAR     86  79  79 S7        29.98R HX 100
GREENVILLE     CLOUDY    86  77  74 S10       30.00R
HAVELOCK       CLEAR     82  76  81 S10       30.02R
KENANSVILLE    NOT AVBL
KINSTON        PTCLDY    86  72  62 S12       30.00R
NEW BERN       CLEAR     82  74  76 S9        30.02R
RICHLANDS      CLEAR     82  73  74 S7        30.02R
ROCKY MOUNT    CLOUDY    84  76  76 S5        29.97R
WASHINGTON     NOT AVBL
WHITEVILLE     CLEAR     82  73  72 S6        30.02R

$$

AMZ130-135-150-152-154-156-158-170-250-252-270-ANZ085-086-088-633-658-670-260200-
MARINE OBSERVATIONS

STATION/POSITION TIME  TEMP    WIND        PRES    WAVE   SWELL
                       AIR SEA DIR/SP/G            HT/PER HT/PER
                 (UTC) (F)     (DEG/KT/KT) (MB)    (FT/S) (FT/S)
CHESAPEAKE LIGHT NOT AVBL
64 E VA BEACH    0050   83 80  210/ 17/ 21 1014.3    4/ 5
DUCK             0000   87 64                N/A
2 E DUCK         0011      73                N/A     2/ 8
OREGON INLET     0000   85 86                N/A
13E OREGON INLT  0100      83                N/A     3/ 4   2/ 8
HATTERAS CG      0000   83 83                N/A
DIAMOND BUOY     0050   85 85  220/ 17/ 21 1016.2    4/ 5   2/ 8
CAPE LOOKOUT     0100   84     220/ 12/ 16 1016.4
BEAUFORT LAB     0000   84 85                N/A
30 SE NEW RVR IN 0108   85 85  210/ 16/ 21 1016.8
30 SE NEW RVR IN 0025      85                N/A     3/ 4
27 SE WRIGHTSVLE 0108   85 85  220/ 14/ 17 1017.1
5 SE WRIGHTSVLE  0108   83 83  230/ 14/ 17 1017.7
225 S CAPE HAT   0050   84 85  200/ 12/ 14 1018.4    2/ 8   2/ 8
41 SE CHARLESTON 0050   85 86  200/ 12/ 14 1016.8    2/ 8   2/ 8

$$




USA.gov is the U.S. government's official web portal to all federal, state and local government web resources and services.